Content
SEND FEEDBACK

Daily
Averages
Monthly
Summary
United States of America

BEN WHEELER, TEXAS


Home > North America > United States > Texas
Elevation: 490 feet     Latitude: 32 23N     Longitude: 095 38W

WEATHER
 
SELECT A DAY
Number of Records: 188,723;   Date Range: 1/1/95 - 7/23/14
 
SHARE

PRINT THIS DATA

[ ← Previous Day ]
WEATHER ALMANAC - JANUARY 22, 2013
[ Next Day → ]
[ °C ]   °F
Weather ElementAverageHighLow
Temperature49.8 °F62.1 °F (4:53 pm)39 °F (4:53 am)
Dewpoint37.9 °F45 °F (11:53 pm)28.9 °F (8:53 am)
Humidity64.9 %83 % (10:53 pm)50 % (2:53 pm)
Barometer30.27 in30.35 in (9:53 am)30.23 in (4:53 pm)
Wind Speed5.4 mph9.2 mph (7:53 am)
Weather ElementAverage
Visibility10 mi
Wind DirectionESE (108.7 °)

Weather ElementTotal
Precipitation---
Heating Degree Days14.5 (Base 65)
Growing Degree Days0.5 (Base 50)
Averaged from 23 records on January 22, 2013
WEATHER CONDITIONS BREAKOUT
WIND DIRECTION BREAKOUT
WEATHER BY HOUR - JANUARY 22, 2013
[ °C ]   °F
Local TimeTemperatureDewpointHumidityBarometerVisibilityWind DirectionWind SpeedGust SpeedPrecipitationEventsConditions
1:53 AM42.1 °F34.0 °F73 %30.26 in10.0 miENE (70°)5.8 mphClear
2:53 AM41.0 °F33.1 °F73 %30.26 in10.0 miEast (80°)5.8 mphClear
3:53 AM41.0 °F32.0 °F70 %30.26 in10.0 miEast (90°)5.8 mphClear
4:53 AM39.0 °F32.0 °F76 %30.27 in10.0 miESE (110°)6.9 mphClear
5:53 AM39.0 °F30.9 °F73 %30.29 in10.0 miESE (110°)6.9 mphClear
6:53 AM39.0 °F30.0 °F70 %30.31 in10.0 miESE (110°)8.1 mphClear
7:53 AM39.9 °F30.0 °F68 %30.32 in10.0 miESE (120°)9.2 mphMostly Cloudy
8:53 AM42.1 °F28.9 °F60 %30.34 in10.0 miSE (130°)8.1 mphOvercast
9:53 AM46.0 °F30.0 °F54 %30.35 in10.0 miSE (140°)6.9 mphPartly Cloudy
10:53 AM51.1 °F35.1 °F54 %30.33 in10.0 miVariable5.8 mphClear
11:53 AM54.0 °F37.0 °F53 %30.30 in10.0 miSE (140°)3.5 mphClear
12:53 PM57.0 °F39.9 °F53 %30.27 in10.0 miCalmScattered Clouds
1:53 PM59.0 °F41.0 °F51 %30.26 in10.0 miCalmOvercast
2:53 PM61.0 °F42.1 °F50 %30.25 in10.0 miSSW (210°)6.9 mphPartly Cloudy
3:53 PM61.0 °F43.0 °F52 %30.24 in10.0 miWSW (240°)4.6 mphMostly Cloudy
4:53 PM62.1 °F44.1 °F52 %30.23 in10.0 miSW (230°)4.6 mphClear
5:53 PM59.0 °F44.1 °F58 %30.23 in10.0 miCalmClear
6:53 PM55.0 °F44.1 °F67 %30.25 in10.0 miEast (100°)3.5 mphScattered Clouds
7:53 PM53.1 °F44.1 °F71 %30.25 in10.0 miESE (110°)5.8 mphScattered Clouds
8:53 PM53.1 °F44.1 °F71 %30.27 in10.0 miEast (80°)3.5 mphMostly Cloudy
9:53 PM50.0 °F44.1 °F80 %30.27 in10.0 miSE (130°)6.9 mphPartly Cloudy
10:53 PM48.9 °F44.1 °F83 %30.26 in10.0 miSE (140°)8.1 mphClear
11:53 PM51.1 °F45.0 °F80 %30.25 in10.0 miSSE (160°)8.1 mphClear
Hourly data recorded from KTYR, located miles away from Ben Wheeler, Texas







STORIES FROM OUR PARTNERS